サイディング・スプリング彗星

468P/Siding Spring (2023)

English version
Home page
Updated on September 3, 2024

---------------------------------------------------------------------

・ プロフィール

符号 468P/2023 O1
検出日 2023年7月18日
検出光度 19.6等
検出者 Martin Masek (F/(Ph)otometric Robotic Atmospheric Monitor, Pierre Auger Observatory, Malarguee, Mendoza, Argentina)

・ 写真集

・ 軌道要素

Epoch 2024 Oct. 17.0 TT = JDT 2460600.5
T 2023 Nov. 21.24107 TT                                 Rudenko
q   3.9501872            (2000.0)            P               Q
n   0.05185871     Peri.  322.58677     +0.76630317     +0.64036123
a   7.1217746      Node   356.12372     -0.21706875     +0.18169131
e   0.4453367      Incl.   50.44778     -0.60469877     +0.74627459
P  19.0
>From 161 observations 2004 Nov. 3-2024 July 19, mean residual 0".6.

・ 光度変化

        m1 = 9.7 + 5 logΔ + 10.0 log r

---------------------------------------------------------------------

軌道要素はM.P.E.C. 2024-O39に掲載されたものです。
光度グラフはComet for Windowsで作成したものです。

---------------------------------------------------------------------

Copyright(C) Seiichi Yoshida (comet@aerith.net). All rights reserved.